This is the latest recevied weather packets stored in our database for station/object KE4LOJ. If no packets are shown the sender has not sent any weather packets the latest 10 day(s).
| Time | Temp. | Humidity | Pressure | Rain* | Wind** | Luminosity | Snow |
|---|---|---|---|---|---|---|---|
| 1777684292 | 26.67° C | 74% | 1011.3 hPa | 0 mm | - | 0 W/m² | - |
| 1777683990 | 27.22° C | 73% | 1011.4 hPa | 0 mm | - | 0 W/m² | - |
| 1777683686 | 27.22° C | 73% | 1011.4 hPa | 0 mm | - | 0 W/m² | - |
| 1777683384 | 27.22° C | 72% | 1011.2 hPa | 0 mm | - | 0 W/m² | - |
| 1777683081 | 27.22° C | 72% | 1011.1 hPa | 0 mm | - | 0 W/m² | - |
| 1777682777 | 27.78° C | 72% | 1011.2 hPa | 0 mm | - | 0 W/m² | - |
| 1777682474 | 27.78° C | 72% | 1010.9 hPa | 0 mm | - | 0 W/m² | - |
| 1777682172 | 27.78° C | 72% | 1010.8 hPa | 0 mm | - | 0 W/m² | - |
| 1777681868 | 27.78° C | 71% | 1010.9 hPa | 0 mm | - | 0 W/m² | - |
| 1777681564 | 27.78° C | 71% | 1010.7 hPa | 0 mm | - | 0 W/m² | - |
| 1777681262 | 27.78° C | 71% | 1010.5 hPa | 0 mm | - | 0 W/m² | - |
| 1777680960 | 27.78° C | 71% | 1010.4 hPa | 0 mm | - | 0 W/m² | - |
| 1777680656 | 28.33° C | 71% | 1010.3 hPa | 0 mm | - | 0 W/m² | - |
| 1777680355 | 28.33° C | 71% | 1010.4 hPa | 0 mm | - | 1 W/m² | - |
| 1777680052 | 28.33° C | 70% | 1010.3 hPa | 0 mm | - | 1 W/m² | - |
| 1777679747 | 28.89° C | 69% | 1010.1 hPa | 0 mm | - | 2 W/m² | - |
| 1777679444 | 29.44° C | 66% | 1010.1 hPa | 0 mm | - | 2 W/m² | - |
| 1777679139 | 29.44° C | 65% | 1010 hPa | 0 mm | - | 2 W/m² | - |
| 1777678838 | 30° C | 64% | 1010 hPa | 0 mm | - | 3 W/m² | - |
| 1777678535 | 30.56° C | 59% | 1009.8 hPa | 0 mm | - | 4 W/m² | - |
| 1777678232 | 31.67° C | 46% | 1009.5 hPa | 0 mm | - | 6 W/m² | - |
| 1777677928 | 31.67° C | 45% | 1009.6 hPa | 0 mm | - | 8 W/m² | - |
| 1777677626 | 31.67° C | 44% | 1009.6 hPa | 0 mm | - | 9 W/m² | - |
| 1777677324 | 31.67° C | 44% | 1009.6 hPa | 0 mm | - | 18 W/m² | - |
| 1777677022 | 31.67° C | 43% | 1009.5 hPa | 0 mm | - | 29 W/m² | - |
* Rain latest hour (hover to see other rain measurements)
** Current wind speed in m/s (hover to see current wind gust speed)